Volver al catálogo

STARLINK-35860

ActivoComunicacionesVLEO
NORAD 66881·PAYLOAD·🇺🇸 United States

Lanzado Dec 4, 2025 desde Vandenberg Space Force Base

Loading…

Próximos Pases (próximas 24 horas)

TLE

ActualizadoSource: CelesTrak SupGP

Época: Sep 14, 2026, 15:45 UTC

1 66881C 25283D   26257.65673611  .00000930  00000+0  27483-4 0  2572
2 66881  53.1572 224.7403 0001411  88.7076 131.2527 15.34375813    11

Sigue STARLINK-35860 en tiempo real con AllMySat

Download on the App Store